Flag for Cyprus Weather past 2 weeks in Famagusta, Northern Cyprus, Cyprus

Now
63 °F

Sprinkles. Partly sunny.


Feels Like: 63 °F
Forecast: 53 / 65 °F
Wind: 7 mph from Southwest

Location: Larnaca Airport

Current Time: Mar 2, 2015 at 1:39:27 PM

Latest Report: Mar 2, 2015 at 1:00 PM


Visibility: N/A

Pressure: 30.01 "Hg

Humidity: 73%

Dew point: 54 °F

Location of FamagustaLocation

Historic Weather in Famagusta — Graph

°F

Famagusta temperature yesterday

Maximum temperature yesterday: 68 °F (at 11:30 AM)
Minimum temperature yesterday: 45 °F (at 5:30 AM)
Average temperature yesterday: 57 °F

Past Weeks' High & Low Weather Summary

 TemperatureHumidityPressure
High70 °F (Feb 27, 1:30 PM)100% (Feb 25, 7:00 PM)30.24 "Hg (Feb 25, 7:00 PM)
Low34 °F (Feb 19, 9:00 PM)25% (Feb 21, 1:30 PM)29.68 "Hg (Feb 20, 6:00 AM)
Average54 °F71%29.97 "Hg
* Reported Feb 15 12:00 Noon — Mar 2 12:30 PM, Famagusta, Weather by CustomWeather, © 2015

Note: Actual official high and low records may vary slightly from our data, if they occured in-between our weather recording intervals... More about our weather records

Advertising

Famagusta weather history for previous 24 hours

 ConditionsComfort  
Time TempWeatherWind HumidityBarometerVisibility
12:30 PM
Mon, Mar 2
61 °FLots of rain. Broken clouds.16 mph72%30.01 "Hg4 mi
12:00 PM64 °FPartly sunny.18 mph64%30.01 "HgN/A
11:30 AM68 °FScattered clouds.9 mph56%30.04 "HgN/A
11:00 AM68 °FScattered clouds.12 mph49%30.04 "HgN/A
10:30 AM66 °FPassing clouds.8 mph56%30.04 "HgN/A
10:00 AM66 °FPassing clouds.8 mph56%30.04 "HgN/A
9:30 AM64 °FPassing clouds.9 mph60%30.04 "HgN/A
9:00 AM63 °FPassing clouds.9 mph64%30.04 "HgN/A
8:30 AM59 °FPassing clouds.2 mph63%30.04 "HgN/A
8:00 AM55 °FPassing clouds.No wind67%30.04 "HgN/A
7:30 AM54 °FPassing clouds.No wind72%30.04 "HgN/A
7:00 AM50 °FPassing clouds.3 mph82%30.01 "HgN/A
6:30 AM48 °FPassing clouds.5 mph87%30.01 "HgN/A
6:00 AM46 °FPassing clouds.6 mph93%29.98 "HgN/A
5:30 AM46 °FPassing clouds.5 mph93%30.01 "HgN/A
5:00 AM48 °FPassing clouds.2 mph94%30.01 "HgN/A
4:30 AM48 °FPassing clouds.5 mph94%30.01 "HgN/A
4:00 AM48 °FPassing clouds.5 mph94%30.01 "HgN/A
3:30 AM48 °FPassing clouds.2 mph100%30.01 "HgN/A
3:00 AM50 °FPassing clouds.3 mph94%30.01 "HgN/A
2:30 AM50 °FPassing clouds.7 mph94%30.01 "HgN/A
2:00 AM48 °FPassing clouds.8 mph94%30.01 "HgN/A
1:30 AM48 °FPassing clouds.7 mph100%30.01 "HgN/A
1:00 AM48 °FPassing clouds.3 mph94%30.01 "HgN/A
12:30 AM50 °FPassing clouds.6 mph94%30.01 "HgN/A
12:00 AM50 °FPassing clouds.3 mph94%30.01 "HgN/A
11:30 PM
Sun, Mar 1
52 °FPassing clouds.3 mph94%30.01 "HgN/A
11:00 PM50 °FPassing clouds.6 mph94%30.01 "HgN/A
10:30 PM50 °FPassing clouds.3 mph94%30.01 "HgN/A
10:00 PM52 °FPassing clouds.3 mph94%30.01 "HgN/A
9:30 PM54 °FPassing clouds.1 mph94%30.01 "HgN/A
9:00 PM55 °FPassing clouds.1 mph88%30.01 "HgN/A
8:30 PM55 °FPassing clouds.1 mph88%30.01 "HgN/A
8:00 PM57 °FPassing clouds.2 mph88%30.01 "HgN/A
7:30 PM57 °FPartly cloudy.5 mph94%30.01 "HgN/A
7:00 PM57 °FPassing clouds.3 mph94%30.01 "HgN/A
6:30 PM57 °FPassing clouds.6 mph88%30.01 "HgN/A
6:00 PM57 °FPartly cloudy.2 mph88%30.01 "HgN/A
5:30 PM57 °FSprinkles. Broken clouds.3 mph88%30.01 "HgN/A
5:00 PM61 °FSprinkles. Broken clouds.7 mph68%30.01 "HgN/A
4:30 PM61 °FBroken clouds.13 mph63%30.01 "HgN/A
4:00 PM63 °FPartly sunny.20 mph59%29.98 "HgN/A
3:30 PM64 °FPartly sunny.20 mph49%29.98 "HgN/A
3:00 PM64 °FScattered clouds.20 mph52%30.01 "HgN/A
2:30 PM66 °FScattered clouds.20 mph52%30.01 "HgN/A
2:00 PM68 °FScattered clouds.20 mph46%30.01 "HgN/A
1:30 PM68 °FScattered clouds.18 mph53%30.01 "HgN/A
1:00 PM68 °FPassing clouds.17 mph46%30.01 "HgN/A
Weather by CustomWeather, © 2015

See weather overviewHow to use our weather pages